Wind_Speed
3 3 3 3 3 3 3 3 3 3 3 3 3 4 4 4 5 5 5 6 7 7 8 8 9 10 10 11 12 13 14 15 16 18 18 13 7 4 1 1 2 4 4 5 3 1 1 2 2 1 2 3 1 2 2 2 3 2 3 3 1 3 3 4 2 4 2 3 7 8 7 5 3 9 11 6 7 12 15 19 21 19 20 20 22 23 23 24
5 5 5 5 5 5 4 5 5 5 5 5 5 6 6 6 7 7 7 8 8 9 9 10 10 11 12 12 13 15 16 16 19 18 11 3 3 6 6 4 4 5 4 4 3 1 3 4 3 1 1 3 2 3 3 4 5 4 3 2 3 5 4 6 7 9 7 5 8 8 8 6 6 11 13 6 8 11 12 19 23 24 26 22 19 19 18 18
6 6 6 6 6 6 6 7 6 7 7 7 7 7 8 8 9 9 9 10 10 10 11 11 12 12 13 14 14 16 16 19 19 10 2 6 9 8 5 7 8 8 6 4 3 2 4 2 2 3 4 4 4 6 5 4 5 6 4 2 6 6 6 12 14 14 15 12 9 8 8 10 12 13 12 8 10 10 9 16 20 24 30 26 20 19 20 18
7 7 7 7 7 7 8 8 8 8 8 8 9 8 9 9 10 10 11 11 11 12 12 13 13 14 14 15 16 16 16 17 11 1 4 5 6 4 9 12 12 10 6 5 4 3 5 4 3 4 5 5 6 7 7 8 6 5 7 4 7 6 5 13 15 17 21 16 11 12 11 12 15 14 11 10 9 7 12 20 22 26 33 31 26 24 24 23
8 8 8 8 8 8 8 9 9 9 9 9 9 10 10 10 11 11 12 13 13 13 14 14 15 15 16 15 15 14 13 9 1 4 3 4 1 9 15 15 13 10 7 5 4 5 5 6 6 5 5 4 4 4 6 13 12 4 7 11 11 7 5 12 16 17 19 17 14 13 10 11 14 15 14 10 7 11 20 26 26 29 33 33 31 28 25 24
8 8 8 9 9 9 9 10 10 10 10 10 11 11 11 12 13 13 14 14 14 15 15 15 15 15 15 14 14 12 7 2 2 3 4 7 10 14 16 16 12 9 7 6 5 6 6 6 7 6 4 4 4 5 7 13 14 6 6 11 16 15 10 13 18 20 20 16 13 11 13 14 12 16 17 11 16 25 31 31 29 30 30 31 32 30 28 26
9 9 9 10 10 10 10 11 11 11 11 12 12 12 13 13 13 14 14 14 15 15 14 14 14 14 13 13 12 8 6 9 8 7 10 12 13 15 14 12 8 5 5 6 7 7 5 5 8 8 4 3 5 7 11 13 11 8 5 7 14 17 14 15 19 20 19 15 15 15 17 15 8 13 16 14 26 33 31 28 27 26 25 26 27 26 24 23
10 10 10 11 11 11 12 12 12 12 12 12 12 13 13 13 13 14 14 13 14 13 13 13 13 13 11 11 9 5 8 12 11 10 12 11 12 13 10 8 5 5 5 7 8 6 4 5 8 9 4 3 5 5 7 9 5 6 5 5 7 10 12 16 18 21 22 23 25 19 17 19 16 17 18 22 32 30 24 23 22 21 20 19 21 21 20 19
11 11 11 11 12 12 12 12 12 12 12 12 12 12 12 12 12 12 12 12 12 12 12 12 12 12 10 10 7 5 9 11 10 9 9 10 11 11 9 8 6 6 5 7 8 7 6 6 7 7 4 3 4 6 5 3 3 3 4 7 8 11 15 17 19 24 27 28 26 15 14 22 20 16 16 24 27 23 23 24 23 21 21 19 20 22 21 20
11 11 11 11 11 11 11 11 12 12 12 12 11 11 11 11 11 11 11 11 12 12 12 12 12 12 11 10 5 4 9 9 7 8 8 9 11 10 10 10 9 7 6 7 8 9 8 7 7 5 5 5 3 5 6 2 4 6 9 11 13 14 18 20 20 30 31 26 25 13 11 23 20 6 9 23 23 22 26 27 26 24 24 24 23 24 23 22
11 11 11 11 11 11 11 11 11 11 11 12 11 11 11 11 11 11 11 11 12 12 12 12 12 12 12 11 7 7 10 9 8 9 10 11 12 12 12 11 10 9 8 8 9 10 10 10 9 5 4 4 3 7 9 6 6 10 11 10 15 16 19 23 20 29 25 15 22 14 8 19 13 4 14 26 24 23 28 28 26 24 23 23 22 22 21 21
11 11 11 11 11 11 11 11 11 11 12 12 12 11 11 11 11 11 11 12 12 12 12 12 12 12 12 13 14 13 13 11 11 13 13 15 15 15 15 12 11 10 10 9 11 11 11 12 11 7 5 3 4 7 7 8 9 13 11 5 11 10 12 22 19 24 18 7 14 8 2 10 5 9 21 23 23 22 23 23 25 25 26 25 22 22 23 24
11 11 11 11 11 11 11 11 11 11 12 11 12 11 11 11 11 11 11 11 11 11 12 11 11 12 11 13 15 14 11 11 12 13 15 17 18 18 15 12 10 10 10 10 12 12 12 14 13 9 7 5 5 5 8 12 10 11 8 0 6 6 6 18 16 16 12 5 10 10 2 7 7 15 21 19 21 20 20 23 28 31 32 29 26 28 27 22
10 10 10 9 9 10 10 10 11 11 11 11 11 11 11 10 10 11 10 10 10 10 11 11 12 11 11 12 14 13 12 12 12 13 14 16 18 17 13 10 8 8 9 10 12 13 12 12 12 10 9 8 8 9 9 10 6 5 5 0 2 2 5 14 11 6 3 3 12 12 3 7 7 14 17 17 19 20 24 28 31 32 30 29 29 26 17 10
9 9 8 8 8 8 9 9 10 10 10 11 10 10 10 10 10 10 9 9 9 10 11 11 10 9 10 13 14 11 10 10 11 11 12 13 15 13 10 7 5 6 7 10 11 12 12 11 10 7 7 8 8 6 4 4 4 2 2 3 2 3 4 12 12 6 3 3 7 7 2 5 7 13 15 16 20 22 24 28 32 30 29 30 25 15 9 11
9 9 8 8 7 7 8 8 9 9 10 10 10 10 9 9 9 9 10 10 10 11 10 9 8 6 6 10 9 7 6 7 7 8 9 11 12 9 5 2 1 2 4 6 8 10 11 9 6 4 4 6 3 2 3 4 4 2 3 4 4 4 3 5 9 6 3 3 1 3 3 4 5 10 15 18 23 25 23 28 30 28 30 26 14 12 13 13
9 8 8 7 7 7 7 7 8 8 9 10 10 10 9 9 8 9 10 9 10 11 9 8 7 6 7 9 9 7 7 8 6 8 10 9 8 5 3 2 1 2 3 4 6 7 7 6 4 3 3 3 2 4 3 2 4 4 2 3 4 5 3 3 7 8 2 3 3 3 4 6 6 10 19 22 23 26 24 22 23 26 26 12 11 16 18 18
9 8 7 7 6 6 6 7 7 8 8 9 10 9 9 9 9 10 10 10 11 9 8 8 5 3 6 8 7 8 8 7 7 8 8 7 6 4 4 5 5 4 4 4 5 6 5 4 5 1 1 1 1 4 3 5 5 4 4 3 4 4 4 5 5 5 4 4 5 6 6 8 8 11 19 25 24 22 19 18 22 22 10 11 18 21 23 23
8 8 7 7 6 6 6 6 7 8 8 7 9 9 8 9 9 9 8 8 8 5 4 6 7 3 3 5 8 11 10 8 8 8 9 8 7 7 7 6 6 5 5 2 3 8 8 4 3 1 2 5 6 7 9 9 8 7 6 4 4 5 5 6 6 5 5 5 6 7 7 6 8 9 14 27 26 18 19 20 15 6 15 21 23 25 25 25
8 8 7 7 6 6 6 7 7 8 7 6 7 7 6 5 4 3 5 7 8 8 9 10 12 13 14 15 13 11 11 9 9 11 10 9 8 7 7 7 5 4 4 4 3 8 10 5 2 5 7 10 11 11 11 9 7 6 5 4 5 5 6 5 6 7 3 2 6 6 4 5 8 9 15 28 24 15 18 11 8 18 23 23 24 25 25 26
9 8 7 7 7 7 6 7 8 8 7 6 6 5 3 2 2 3 6 9 13 15 18 19 20 21 23 22 17 15 15 11 10 10 8 8 8 6 9 9 5 3 5 5 4 4 7 4 7 11 11 11 9 8 8 7 6 5 5 4 5 5 6 5 6 7 3 2 5 4 6 7 9 10 18 24 16 11 8 6 17 21 23 23 24 24 25 25
10 9 8 7 7 7 7 7 9 8 6 6 6 4 2 2 4 6 6 9 15 17 18 20 22 24 26 24 22 21 18 11 8 9 8 9 10 7 9 9 4 4 5 4 5 3 4 5 11 13 10 7 7 5 6 7 6 5 4 2 4 4 3 6 6 4 3 1 5 6 6 8 10 12 18 17 7 8 11 17 19 21 24 22 23 24 24 25
12 10 9 7 6 7 8 8 8 6 4 5 4 3 3 4 5 7 6 6 13 19 18 19 21 24 24 21 20 19 15 10 8 10 11 11 13 11 10 10 5 4 4 5 6 5 3 7 13 14 8 5 7 7 7 6 5 5 4 2 5 4 1 4 5 5 4 2 3 4 6 5 7 12 12 7 11 16 21 25 24 25 26 24 24 24 25 27
13 11 9 7 7 9 9 8 6 4 4 4 4 3 3 4 4 7 7 4 7 14 15 14 14 14 13 13 13 14 12 8 6 9 14 15 14 10 9 10 8 4 5 7 9 8 7 7 8 8 5 6 7 9 7 5 4 4 4 5 5 4 4 6 4 4 5 5 2 3 5 4 6 10 8 6 14 15 19 24 25 24 25 26 26 26 27 28
13 12 10 8 9 9 8 7 6 5 5 4 3 2 1 3 5 6 5 2 4 8 7 6 6 5 7 8 9 9 5 6 6 7 13 17 15 7 4 9 8 4 6 7 7 7 9 8 6 6 6 5 6 7 6 5 3 4 4 8 8 7 7 5 3 5 4 5 4 4 4 6 5 7 7 2 8 8 11 16 18 20 22 25 26 26 27 28
14 14 12 9 9 9 7 6 6 6 5 4 2 1 1 3 5 5 2 2 2 4 2 3 3 3 5 4 7 7 2 3 6 7 13 17 14 7 1 5 6 4 5 5 3 3 5 4 4 5 6 5 4 5 5 6 3 3 5 6 6 6 4 2 2 3 1 3 4 2 1 6 4 5 8 3 8 6 8 10 13 17 20 23 24 23 25 27
16 15 14 12 11 10 8 7 6 6 5 4 3 2 2 3 3 3 2 2 3 2 3 3 2 3 4 4 8 8 2 3 6 9 16 15 12 8 3 2 3 3 3 3 1 3 3 2 4 4 3 4 3 5 5 6 6 4 5 3 5 3 2 2 2 1 3 2 5 2 4 4 4 6 7 5 10 6 6 7 9 15 19 22 22 22 23 25
19 19 19 18 15 13 11 9 7 7 6 5 3 3 3 2 1 1 3 1 3 2 3 2 2 4 5 6 9 6 2 5 5 6 14 13 9 7 4 4 3 3 3 4 3 5 2 4 3 4 4 3 5 5 5 7 5 6 5 4 5 4 4 3 2 2 2 2 5 5 5 3 5 6 3 7 9 5 6 6 6 11 17 20 21 21 22 24
23 23 22 21 19 17 16 13 10 8 6 5 4 3 2 2 0 2 3 1 1 1 1 2 3 4 6 6 7 5 3 4 2 5 11 10 9 5 2 4 2 3 4 4 5 5 1 3 6 7 5 5 7 4 3 7 4 4 2 4 4 2 1 1 1 1 2 2 4 6 5 3 5 6 1 5 5 5 6 5 6 11 16 18 19 19 20 23
23 22 20 19 19 20 18 14 11 8 7 6 5 4 3 2 2 2 2 2 1 1 2 3 2 4 5 4 2 4 4 4 4 7 6 5 8 5 1 2 0 2 2 2 2 5 1 2 2 4 5 6 4 1 2 4 4 3 5 5 6 5 3 2 1 3 3 2 6 8 8 6 4 5 2 2 4 9 9 6 7 10 15 17 17 18 19 22
20 19 18 17 17 18 15 12 11 9 7 6 5 6 5 2 2 2 3 1 1 1 2 1 1 4 5 3 2 3 3 3 6 8 4 2 4 3 1 0 1 3 3 5 4 5 2 2 1 3 6 4 5 2 2 3 2 5 5 4 4 5 4 5 4 3 2 5 7 7 7 7 5 4 2 3 1 8 10 9 9 10 14 16 16 18 20 22
18 17 16 15 15 14 13 12 11 10 9 7 7 7 4 1 1 3 2 1 1 1 1 1 2 3 3 2 2 4 3 3 5 6 4 3 3 3 2 3 3 1 3 3 2 4 2 4 4 2 4 6 5 1 3 5 4 5 4 4 2 4 3 2 2 0 2 6 6 3 2 4 6 3 3 6 6 6 8 11 13 15 16 17 17 19 20 22
16 15 15 15 14 12 11 10 11 13 12 11 10 6 3 1 3 3 3 2 1 1 1 2 2 3 3 1 1 4 3 3 5 5 3 4 3 3 4 5 5 3 2 4 2 2 3 5 2 1 3 7 9 4 3 2 1 4 4 4 3 1 0 3 3 2 3 5 4 2 1 1 5 2 4 4 5 10 16 18 18 19 20 19 19 19 20 20
16 16 16 15 13 12 12 11 13 15 15 14 10 5 3 3 3 3 5 4 1 1 1 2 2 2 2 1 3 3 2 3 4 6 3 4 3 3 4 6 6 4 2 2 2 2 3 6 3 4 2 5 9 5 4 4 3 5 5 5 5 4 3 4 3 3 4 4 4 3 1 2 3 0 3 4 8 15 20 21 21 20 19 18 19 19 19 17
15 14 13 12 12 13 13 14 15 16 16 13 7 3 4 4 1 2 4 4 1 1 1 1 2 1 1 2 3 3 4 4 2 5 3 4 4 4 4 5 7 6 3 2 2 2 4 6 5 2 1 7 6 3 4 6 1 2 4 4 2 4 4 2 3 4 3 3 4 2 2 2 2 2 4 6 9 13 16 18 19 17 16 17 17 17 16 15
13 13 12 12 13 14 14 15 16 17 17 12 4 2 5 2 2 3 2 1 1 1 1 2 1 2 3 2 3 3 4 4 2 3 2 3 4 5 4 3 5 8 6 4 3 1 2 5 3 2 2 4 5 1 2 4 1 0 3 3 4 4 5 1 4 2 1 3 4 3 2 1 2 1 2 5 6 8 9 11 13 14 15 16 16 15 14 12
12 13 13 14 14 13 14 15 15 17 17 10 3 4 3 1 4 4 1 1 1 1 1 1 1 3 3 2 2 3 2 2 2 3 2 3 3 4 5 2 1 5 6 5 3 2 3 4 4 2 1 2 3 2 2 1 3 3 2 4 3 1 3 2 1 2 1 4 4 3 5 4 2 2 1 3 4 5 4 5 9 10 12 13 13 13 11 10
12 12 12 13 13 13 15 15 15 17 14 7 4 5 3 2 5 6 5 3 2 3 2 2 3 3 4 4 2 2 3 2 2 3 2 2 4 4 5 2 1 1 2 5 2 1 2 2 6 2 3 2 1 3 2 3 3 4 3 2 1 1 2 0 1 2 3 4 4 5 7 5 4 4 5 6 7 7 6 5 6 7 10 12 12 11 9 8
11 9 8 10 12 15 16 16 17 16 9 4 5 5 3 3 8 13 13 6 1 1 2 5 5 3 3 5 3 2 4 4 4 3 2 3 4 1 3 2 0 3 3 6 4 1 2 2 5 3 1 1 3 3 2 2 3 3 2 2 1 3 3 2 2 3 3 4 4 5 5 4 4 5 8 10 10 10 9 7 6 9 13 12 11 9 7 6
8 4 4 6 9 14 18 18 17 13 5 4 5 3 2 3 9 18 21 12 4 4 5 5 6 6 5 4 3 3 3 4 5 4 2 3 4 2 2 1 2 1 5 6 4 0 2 2 4 4 3 1 1 1 5 4 1 2 1 1 2 1 1 2 2 2 3 3 3 4 5 4 4 2 7 11 11 10 10 7 7 12 15 13 10 9 7 6
6 2 3 7 8 15 22 18 12 8 3 4 4 3 5 5 5 11 19 20 14 9 7 5 5 6 5 4 3 3 2 3 4 4 3 4 4 2 0 1 1 1 3 6 3 1 1 2 3 3 3 1 4 5 5 6 5 3 2 3 3 2 1 2 4 2 3 3 3 4 5 5 4 1 4 9 8 8 11 11 10 15 18 13 10 9 8 7
9 3 5 9 12 20 23 13 6 6 4 6 6 6 9 8 6 7 11 14 14 11 8 5 4 4 3 3 3 2 2 3 4 5 4 4 3 2 0 1 2 3 3 2 0 1 2 3 2 3 5 4 7 6 1 3 5 5 3 2 3 3 3 3 5 3 1 2 2 2 2 2 2 1 3 7 9 12 16 16 13 15 17 13 10 10 9 8
12 8 7 11 17 26 21 5 4 6 5 7 7 7 10 8 5 7 8 8 8 7 6 4 4 5 5 3 3 2 2 2 4 5 4 2 2 1 2 1 3 4 4 2 1 2 3 3 1 3 5 4 5 4 4 4 3 3 1 1 2 2 3 4 4 2 1 3 3 3 4 3 2 2 3 8 11 13 15 14 12 12 13 13 11 10 9 8
12 10 9 11 22 29 17 3 5 8 7 7 4 6 10 8 7 7 6 7 7 5 3 3 4 6 5 3 3 3 4 3 4 4 3 2 2 0 3 1 3 3 2 1 2 1 1 1 2 0 3 5 6 5 4 5 3 2 1 1 2 3 2 2 1 1 1 4 5 5 6 3 1 1 2 5 7 8 10 12 11 11 13 13 11 10 8 7
8 7 6 12 26 28 14 4 3 4 7 7 5 7 7 7 9 10 7 7 9 7 4 4 6 7 5 3 4 5 5 4 3 2 0 1 0 1 4 2 3 4 3 4 6 6 3 2 3 4 3 5 4 3 2 2 2 1 2 3 1 2 2 1 1 1 2 2 2 3 5 3 3 4 2 3 3 4 7 11 12 13 14 13 12 10 8 7
7 4 3 9 21 25 19 11 4 1 3 5 5 7 8 6 7 11 11 8 10 11 6 4 5 5 4 4 5 5 5 4 3 2 1 1 1 2 3 3 4 7 7 7 7 5 3 1 3 5 7 7 5 5 4 3 1 3 5 6 7 6 4 2 2 3 2 1 3 6 7 6 8 10 5 3 4 6 7 10 13 14 15 13 12 10 8 7
5 3 5 8 11 16 17 16 11 5 2 4 3 4 9 10 6 8 12 11 12 13 7 3 6 5 4 5 5 4 4 3 3 4 3 3 2 1 2 4 5 6 6 6 4 4 4 1 3 6 6 7 5 4 1 3 1 5 6 9 11 10 6 4 5 4 2 2 7 10 8 6 9 13 9 3 5 6 7 10 14 16 16 14 11 10 9 8
5 2 8 11 7 7 10 13 16 13 7 5 4 3 5 8 7 7 9 7 11 14 8 3 6 8 6 6 5 4 5 4 4 4 3 3 2 1 1 2 2 2 3 3 1 4 4 3 4 4 3 7 5 3 3 1 2 5 6 9 12 13 12 9 8 7 5 6 10 11 10 9 11 13 9 5 7 8 9 12 15 13 14 14 12 10 9 8
7 4 5 9 5 5 10 13 16 17 13 8 5 5 5 6 7 7 5 2 4 9 9 6 6 7 7 7 5 4 5 5 5 4 2 2 2 3 1 1 1 2 2 2 0 2 3 2 2 3 3 7 5 3 3 3 4 6 8 11 13 15 13 10 9 10 9 9 12 11 10 13 13 9 6 7 9 7 5 5 5 8 13 14 12 11 9 8
6 3 3 4 3 4 7 10 12 11 11 9 9 9 7 6 7 5 3 4 4 4 7 9 7 5 6 7 7 6 7 6 6 5 5 4 2 2 2 2 2 1 2 2 0 1 2 1 1 3 0 6 3 1 2 4 5 6 10 14 15 14 12 11 11 9 7 9 10 9 9 12 11 6 5 7 6 3 6 7 8 10 12 14 12 9 8 6
7 4 2 1 2 3 4 5 8 7 6 8 9 8 7 9 8 3 1 3 5 4 5 9 8 4 3 5 7 7 6 7 7 6 7 6 4 3 2 2 4 3 1 1 0 1 2 1 1 4 2 5 2 4 1 5 5 7 14 19 18 13 10 10 9 7 8 9 8 7 8 10 8 7 5 3 3 6 8 9 10 10 10 11 9 7 6 5
10 7 4 0 1 3 3 3 5 6 5 6 8 8 7 8 7 6 3 2 3 3 4 8 10 6 3 5 7 6 8 10 9 8 7 5 4 4 3 3 5 5 4 3 1 1 3 3 1 2 1 6 2 4 3 1 3 7 12 14 14 11 9 9 8 8 10 8 6 7 8 8 6 6 6 3 3 6 7 8 8 8 7 6 6 5 6 7
Wind_Direction
223 224 221 226 228 235 240 245 253 256 264 270 272 278 281 279 281 286 285 285 291 295 299 303 306 309 312 314 317 318 319 320 318 316 314 313 298 277 293 45 17 7 359 355 354 310 186 67 356 337 338 339 338 265 256 242 213 142 93 111 242 219 206 216 227 317 312 285 313 327 353 29 2 344 336 309 265 267 279 283 282 280 274 278 292 297 288 281
237 239 240 242 244 248 254 257 262 262 267 271 273 277 278 279 280 282 282 284 288 290 293 297 300 303 305 308 310 312 315 317 316 317 318 328 102 102 88 48 3 357 348 341 339 282 130 66 9 253 279 308 268 237 220 209 195 179 138 142 225 210 228 275 299 317 331 314 316 333 350 355 327 327 330 308 270 278 280 282 286 286 283 287 295 293 291 290
239 241 246 250 253 255 257 260 263 265 267 270 271 273 275 277 278 280 281 283 285 287 290 293 295 298 300 302 306 310 315 318 318 324 62 108 100 89 45 343 325 327 327 314 305 206 153 99 326 233 223 256 236 225 215 194 200 204 175 168 241 225 261 287 296 312 315 312 321 332 325 319 313 317 319 299 286 286 267 275 284 286 289 294 295 291 296 300
244 246 249 252 255 256 258 261 263 266 268 270 271 273 274 276 278 280 281 283 285 286 289 292 294 296 298 301 305 310 318 322 321 70 125 127 105 34 341 327 311 312 310 288 273 204 178 186 231 229 216 242 241 228 213 200 210 193 170 189 235 232 266 274 284 302 306 312 318 315 317 313 309 308 301 296 302 284 257 268 276 282 289 293 292 290 292 293
253 256 257 257 259 260 263 265 265 267 269 271 273 274 275 277 279 281 282 284 285 287 289 292 294 296 298 302 304 311 325 336 359 142 167 183 235 314 320 318 307 304 291 262 248 206 198 197 201 223 225 244 250 225 218 214 214 197 201 216 228 238 259 270 284 299 299 303 305 309 312 303 306 300 286 285 281 270 273 278 280 282 287 290 290 291 291 288
260 262 263 264 265 266 267 268 271 272 273 275 276 278 280 281 282 283 284 286 287 289 292 293 295 296 299 302 304 312 322 299 209 193 242 259 280 298 308 309 304 295 270 234 219 195 196 196 198 223 217 227 236 219 247 235 217 218 249 232 235 244 251 275 289 298 299 298 289 292 295 296 307 296 286 269 262 277 285 286 284 284 285 288 289 289 289 287
263 265 267 269 269 271 272 273 275 276 277 279 281 283 283 284 285 286 287 289 290 292 294 294 294 294 298 299 301 307 274 263 271 262 271 278 282 295 303 302 297 273 240 207 211 196 191 193 203 226 215 227 238 222 259 267 227 214 257 240 240 249 257 281 294 296 301 298 283 290 295 291 289 287 289 276 276 287 294 293 288 286 286 287 288 288 288 285
265 268 270 271 273 275 276 278 279 279 281 282 283 283 284 285 286 286 288 289 290 292 293 293 293 293 296 296 298 289 260 278 293 281 278 279 281 292 294 291 286 256 226 206 217 200 197 212 219 235 228 236 254 252 287 305 264 220 250 258 256 271 281 293 300 298 297 292 288 293 287 279 274 277 281 278 284 294 301 301 296 290 287 284 287 288 285 281
266 268 269 270 272 274 276 278 279 280 282 282 282 283 284 285 286 287 288 289 290 292 293 294 293 294 296 294 293 272 270 290 301 289 280 274 276 279 275 281 282 260 230 216 219 203 211 235 242 242 242 279 281 293 323 352 302 282 304 316 311 301 299 301 302 296 291 286 285 286 279 278 276 277 277 274 284 300 304 302 298 292 286 281 284 287 284 281
267 268 269 271 273 275 277 278 279 281 282 283 284 284 286 287 288 289 290 291 291 292 293 293 294 294 294 292 268 241 284 294 290 286 277 265 266 265 271 280 276 262 240 227 217 209 221 246 265 259 270 302 305 303 323 316 282 318 337 330 311 302 303 301 295 288 286 284 279 263 261 274 271 265 269 276 291 303 300 301 299 294 291 286 284 284 286 284
269 270 271 273 276 278 278 279 281 283 283 284 285 286 288 288 289 290 290 291 290 291 291 290 293 291 293 289 245 238 285 290 278 280 274 268 266 266 276 277 267 258 242 229 213 214 228 242 262 272 277 302 323 319 323 311 300 317 331 332 306 307 306 294 285 282 281 281 272 245 237 273 269 213 250 274 297 303 298 301 299 295 295 294 292 291 293 294
269 271 272 275 277 278 279 280 281 281 282 283 284 285 286 286 286 287 287 289 288 289 287 287 289 289 291 283 262 265 285 283 272 270 268 271 271 273 281 277 264 255 247 234 215 217 229 240 254 262 270 299 332 331 324 315 327 321 321 330 299 318 310 285 276 273 268 265 265 223 197 284 253 232 253 275 298 300 298 297 297 299 299 302 307 307 308 310
269 270 271 272 274 275 276 277 277 278 279 279 281 281 282 283 284 285 285 287 289 288 288 287 286 287 285 276 275 282 285 274 265 261 260 265 269 275 281 277 265 253 248 239 225 223 228 239 249 254 272 289 301 298 297 308 325 318 311 198 291 335 312 277 274 272 269 247 222 172 157 277 237 247 260 286 298 299 300 296 297 297 298 303 309 312 315 323
269 269 270 270 270 271 271 271 271 273 274 275 278 280 281 283 283 285 286 287 289 289 288 286 284 286 275 269 281 285 276 268 259 254 255 260 266 273 276 273 266 251 240 237 232 230 229 236 246 255 269 271 276 285 301 315 312 300 310 83 268 295 278 281 284 278 279 209 185 162 200 258 249 261 270 291 292 293 296 292 292 293 298 305 311 319 332 12
269 269 267 267 266 266 266 267 269 271 274 277 279 282 283 286 287 288 288 287 290 288 287 286 285 284 273 274 282 281 271 261 252 252 255 256 261 266 271 269 257 240 230 233 234 235 239 241 243 250 264 267 273 286 328 341 308 276 290 309 280 203 257 293 293 265 215 195 174 161 236 254 263 264 269 286 284 287 291 287 290 295 301 307 320 350 48 72
268 267 265 263 261 261 263 266 271 275 280 283 285 288 289 292 294 291 288 289 288 285 285 286 280 271 269 280 282 275 268 258 253 257 250 247 254 258 258 243 191 206 218 229 237 236 243 248 247 243 250 261 238 137 38 357 317 309 199 250 263 231 264 303 305 296 163 129 206 215 243 265 275 264 268 283 284 285 284 284 290 297 300 309 347 54 76 73
264 262 260 258 254 254 259 266 274 280 285 290 293 294 295 295 291 287 285 284 280 277 280 277 273 271 265 268 272 275 276 269 261 252 245 244 246 236 205 209 244 261 233 228 231 226 232 222 189 214 232 240 164 118 49 330 282 294 232 229 245 244 266 280 301 315 69 92 296 258 236 251 266 271 273 279 281 278 276 283 292 298 302 324 63 73 69 66
262 259 257 254 251 253 259 269 278 283 290 295 297 297 297 291 282 280 279 275 271 270 275 254 233 274 268 251 266 293 290 267 249 242 236 223 212 217 238 263 273 250 212 215 211 184 185 180 155 156 302 239 184 145 180 233 224 239 235 239 266 258 267 269 275 308 352 344 304 282 267 265 272 275 278 282 281 278 282 292 299 304 325 83 86 74 69 67
262 259 257 254 254 258 262 273 280 284 289 291 294 298 296 286 278 275 267 263 256 247 265 228 200 217 256 259 284 296 287 256 235 230 225 220 226 247 251 247 239 194 159 170 203 176 160 127 118 125 261 219 215 195 205 223 213 222 232 235 263 260 267 267 259 285 322 317 286 268 266 276 287 288 288 289 290 294 298 301 310 2 88 94 83 76 74 69
260 256 258 259 261 263 264 270 274 280 287 286 290 294 293 296 295 270 254 258 252 252 268 257 246 254 262 273 282 284 276 256 243 237 232 234 235 232 208 186 180 166 161 163 182 190 166 124 159 202 217 217 218 214 217 233 227 235 253 258 257 247 265 274 271 286 335 341 269 265 294 294 292 297 290 288 295 308 303 310 70 94 95 89 84 80 76 74
257 255 257 261 263 266 267 271 273 277 285 290 301 302 302 345 340 293 291 285 275 268 268 267 262 261 263 267 269 272 271 263 253 241 229 214 194 188 185 169 148 186 224 179 138 165 158 159 219 215 220 225 228 223 227 247 247 243 240 252 266 250 264 277 279 289 352 29 269 302 347 306 295 293 284 288 304 326 317 98 103 99 93 87 86 82 80 80
255 255 257 261 267 273 272 274 275 273 277 287 305 307 296 322 300 301 313 294 285 281 273 270 264 258 260 260 261 265 262 253 242 224 212 192 177 187 188 168 157 209 209 156 117 123 161 223 238 228 226 242 265 252 238 253 254 257 250 251 279 268 290 296 293 307 13 14 275 311 324 291 291 279 279 295 340 42 71 101 103 97 93 85 83 83 84 83
252 252 254 262 273 275 268 269 269 265 268 276 289 281 274 305 307 316 320 285 289 294 283 270 263 258 258 258 254 249 240 239 245 229 220 198 187 201 193 174 191 212 185 167 157 151 182 232 239 237 228 233 267 262 252 263 265 261 255 258 274 277 320 284 295 327 338 290 260 300 297 282 283 269 283 346 77 83 83 91 91 92 92 87 86 85 84 83
248 248 252 262 271 272 263 258 255 250 246 242 256 262 274 308 320 326 315 272 286 294 282 263 259 259 254 246 237 230 228 237 254 239 220 202 196 204 200 187 193 207 209 192 173 183 219 230 228 233 221 199 234 259 254 247 266 264 224 217 244 257 232 231 274 329 329 322 341 5 324 289 251 256 280 63 91 85 83 87 84 84 87 88 88 84 83 84
244 244 252 259 263 265 257 246 233 225 228 224 236 250 290 317 326 333 319 305 287 282 273 238 232 238 226 221 218 213 221 231 236 233 208 197 195 199 211 199 192 217 225 197 176 205 242 246 225 239 257 215 208 247 234 195 241 288 236 217 221 229 236 246 328 9 14 334 325 46 10 291 252 255 267 128 94 68 73 81 80 81 84 86 84 82 84 84
242 243 251 253 255 258 251 242 225 209 221 233 225 198 305 310 327 336 338 32 307 262 222 185 190 199 202 204 196 181 176 235 214 201 190 190 195 195 231 206 193 221 218 191 174 222 247 240 189 204 233 215 204 252 231 167 151 274 252 212 197 196 208 244 17 31 47 256 279 72 101 274 269 255 258 150 98 80 76 73 76 79 80 83 83 83 85 85
241 245 252 252 248 245 241 239 223 210 223 239 221 200 289 300 331 346 30 31 291 224 134 160 163 162 179 167 166 160 140 184 162 175 184 188 201 201 223 223 185 228 218 125 98 253 216 148 82 115 165 179 204 253 233 159 138 232 255 129 114 127 163 183 116 171 228 251 306 277 180 255 278 248 245 126 103 96 88 76 75 80 80 83 84 84 86 87
245 249 255 255 247 238 237 236 224 217 222 225 224 230 263 271 294 25 80 19 279 164 123 151 138 154 161 156 169 163 130 153 142 182 191 196 208 200 221 227 186 249 248 138 179 263 208 164 179 149 138 185 207 233 206 149 147 237 233 113 102 124 153 166 141 214 258 345 309 258 185 234 273 261 242 121 123 135 122 107 86 85 86 86 86 87 89 91
251 254 256 257 251 241 240 236 222 214 210 201 206 227 233 225 278 62 102 196 307 63 157 159 138 163 152 143 179 188 158 165 155 176 186 200 205 186 219 234 205 287 268 171 194 252 226 170 188 149 145 209 216 241 170 148 185 235 170 90 62 69 107 118 152 152 6 346 255 232 187 193 269 283 299 119 147 167 142 115 97 93 91 92 93 94 95 95
253 254 253 252 249 241 235 222 202 193 191 192 194 189 178 162 94 85 173 199 23 44 132 144 157 159 144 124 180 198 179 184 158 142 152 186 196 199 266 250 39 49 321 342 251 250 237 99 144 157 192 204 174 121 78 138 174 117 78 50 23 8 16 35 75 89 52 285 242 223 201 188 266 289 240 176 179 162 146 130 121 102 96 100 103 103 102 100
251 248 245 243 239 230 215 193 185 180 176 183 177 161 150 118 85 164 203 194 41 177 118 130 171 140 151 141 137 183 177 175 161 144 140 154 177 219 325 14 26 53 3 338 302 289 333 102 217 221 212 175 117 100 22 30 99 94 73 62 20 339 7 30 7 49 102 253 258 238 205 183 223 267 297 333 34 138 142 147 145 120 106 109 111 111 108 104
240 236 233 224 213 201 188 185 183 170 166 171 164 155 138 96 213 194 210 7 48 204 161 175 190 160 184 173 150 189 184 185 177 161 169 155 152 203 197 178 163 67 326 266 276 319 291 223 232 244 218 184 134 97 330 356 45 90 86 84 39 318 358 7 310 107 208 247 258 244 160 176 225 251 17 14 25 68 101 120 128 124 121 121 118 116 112 108
222 212 200 193 187 181 183 189 175 160 159 159 154 141 112 181 219 192 201 226 205 216 148 120 163 165 140 103 250 207 179 207 188 172 176 148 153 232 243 225 181 151 232 215 263 325 297 291 259 163 268 198 160 153 234 280 113 139 142 138 156 181 198 264 253 248 269 264 263 266 82 240 258 308 35 34 47 78 96 109 121 126 128 128 124 120 114 109
206 192 182 181 182 183 187 182 166 155 152 152 143 112 122 200 224 186 201 226 258 234 152 87 122 145 109 151 231 186 157 260 187 163 169 140 154 239 250 242 212 173 166 200 241 200 245 302 238 185 254 181 173 188 175 151 150 176 164 143 150 167 195 237 231 224 258 276 285 298 307 213 221 349 46 68 80 91 103 116 124 127 130 130 126 122 116 108
196 192 189 190 188 186 184 178 167 155 153 152 131 99 182 205 206 177 210 239 292 58 353 17 96 93 296 236 245 194 180 247 187 150 176 170 179 209 203 214 205 181 157 193 237 182 204 262 249 204 139 149 174 240 124 109 95 228 145 119 170 194 186 236 245 205 203 289 293 272 243 210 146 88 67 83 84 88 102 117 122 126 132 132 129 124 117 108
200 201 200 201 195 188 184 178 167 161 161 152 120 196 208 207 177 185 212 232 210 87 23 330 112 169 259 251 273 252 196 223 213 159 214 216 207 216 206 209 194 180 171 180 222 217 200 257 282 27 53 149 164 190 126 137 202 269 113 171 222 184 137 143 280 264 124 264 260 215 242 302 88 83 75 88 83 85 101 118 125 133 137 135 133 126 119 112
210 206 205 203 195 187 185 179 170 170 169 154 157 217 197 207 213 212 301 12 344 34 67 294 193 179 222 236 249 245 214 253 237 183 227 254 241 216 202 224 189 177 190 192 220 223 182 259 278 160 173 240 162 105 6 133 141 127 163 220 235 67 79 104 252 307 284 250 258 243 245 243 207 234 155 121 120 118 137 139 131 140 145 143 140 132 126 121
223 223 223 218 205 193 187 183 178 178 173 162 211 226 187 205 221 221 249 278 326 29 70 232 222 173 202 224 232 210 186 215 221 192 205 244 247 205 171 192 5 36 190 166 171 252 155 249 284 229 165 243 47 68 351 351 70 126 172 210 126 99 288 292 144 220 241 250 273 265 250 240 228 215 179 173 171 161 171 166 150 164 167 159 151 145 141 136
246 241 242 237 219 203 195 190 185 182 184 191 214 223 200 220 234 231 238 257 288 187 215 225 224 218 218 212 207 200 188 197 207 198 186 212 238 227 109 147 142 22 47 119 148 257 104 168 274 306 140 237 28 59 200 283 5 58 54 350 69 165 196 210 182 182 212 242 262 258 250 253 249 208 171 177 178 169 173 174 179 187 180 170 164 160 159 158
249 233 241 236 212 197 189 186 185 185 202 221 206 207 202 228 239 233 235 239 221 205 220 218 214 226 236 223 208 206 203 207 207 203 203 214 242 299 42 88 132 57 35 63 102 76 56 167 243 304 334 17 36 206 183 179 126 55 38 316 286 237 203 252 238 158 158 207 242 250 250 252 263 217 163 174 176 171 172 168 184 196 189 182 180 180 179 176
222 199 228 212 190 181 174 171 184 193 215 243 221 212 223 233 239 229 230 229 225 223 223 217 214 219 231 234 213 188 200 221 214 214 224 232 251 263 220 45 78 150 46 43 56 69 54 185 201 282 307 225 228 233 165 138 136 138 176 208 205 205 226 274 264 210 159 186 196 222 256 268 280 305 150 164 164 168 173 171 188 203 198 194 197 199 198 192
197 197 228 205 183 173 166 162 193 193 204 231 218 210 218 227 235 224 217 216 218 225 228 226 219 214 222 225 202 173 184 214 216 218 228 238 241 235 194 45 78 111 100 90 138 91 98 114 127 257 254 227 241 256 155 131 158 161 196 214 161 155 148 193 243 243 214 224 191 185 241 262 273 283 139 153 163 172 178 181 193 204 202 201 205 206 206 203
189 189 201 198 180 170 165 171 211 192 225 229 215 221 220 219 231 221 202 195 202 209 216 218 208 215 226 202 176 192 198 209 227 222 224 237 230 289 329 4 101 81 78 131 253 36 75 90 98 275 287 295 290 309 14 32 103 131 283 314 124 149 159 172 210 224 236 243 245 263 257 242 283 332 108 139 160 171 183 194 199 198 199 204 206 202 201 200
180 172 174 181 175 171 174 214 200 200 229 222 212 234 228 229 233 213 187 183 190 184 193 220 207 210 222 186 172 207 205 219 262 245 215 198 191 320 356 48 140 102 61 162 179 136 111 117 120 149 302 314 324 334 358 7 37 107 264 277 132 135 123 98 114 136 222 229 224 248 257 245 273 323 81 115 144 170 197 210 208 200 200 204 203 197 195 193
158 152 160 176 178 181 198 231 169 203 226 217 230 236 227 239 234 218 202 195 198 182 170 221 214 198 205 195 196 220 212 204 243 265 197 95 112 29 25 46 156 132 96 127 141 139 150 172 130 132 214 246 268 264 237 350 4 346 287 297 270 221 240 306 324 227 233 227 201 230 251 265 274 249 192 138 158 205 225 222 216 213 209 205 201 198 196 191
162 162 148 170 186 202 225 235 215 240 212 202 231 233 221 235 239 219 210 214 218 205 187 205 201 184 200 193 187 222 229 202 200 221 143 120 246 342 29 67 120 122 115 113 118 121 114 208 173 163 203 230 232 217 185 96 19 281 293 296 286 274 245 188 202 227 220 244 258 243 240 262 274 265 246 181 196 226 234 224 217 214 212 208 203 199 195 190
175 192 171 162 191 218 234 237 230 228 208 192 210 232 217 217 228 220 212 213 212 205 205 217 191 186 204 187 176 219 223 195 203 215 187 161 167 28 55 80 95 114 117 100 95 105 97 270 219 173 210 243 232 218 197 75 188 241 270 281 280 280 269 219 222 232 212 268 263 255 253 255 260 268 275 239 209 233 250 255 253 237 216 206 197 188 190 194
188 233 188 173 179 210 219 223 218 216 225 221 223 286 229 203 200 209 211 211 202 197 201 235 210 197 186 170 169 205 206 204 224 220 191 167 149 112 23 24 74 127 116 70 58 105 113 242 234 150 222 263 261 270 314 347 239 238 253 266 270 270 264 253 244 235 217 238 256 262 270 266 261 269 276 250 242 254 259 268 269 244 206 191 184 180 186 193
209 270 213 186 197 220 207 204 201 207 220 220 225 259 236 202 210 215 194 166 206 205 200 214 217 195 184 179 170 184 201 201 219 228 191 144 145 150 157 311 230 167 110 83 67 96 106 246 251 138 235 271 275 289 312 289 264 266 261 257 258 261 260 255 249 237 221 233 252 262 270 268 265 270 275 274 274 262 226 213 212 191 180 180 183 189 193 197
207 250 234 211 247 250 214 198 185 197 215 212 221 239 231 218 229 227 184 178 198 215 207 207 200 177 186 187 178 206 219 191 192 212 176 144 165 179 177 207 193 139 63 79 342 2 92 195 279 93 29 284 280 77 355 286 269 277 273 263 257 259 263 260 253 244 234 241 248 256 265 266 271 287 295 285 271 180 132 129 144 162 176 180 182 187 189 191
207 226 250 317 263 228 216 192 173 183 212 211 219 226 218 224 222 199 322 228 181 180 212 199 176 143 145 166 179 211 207 159 160 172 150 144 168 162 148 180 155 128 105 145 172 17 88 186 314 74 63 284 284 100 263 283 292 282 270 264 258 253 253 254 246 230 226 237 246 252 255 259 274 291 282 252 157 134 119 115 127 144 163 176 182 188 197 206
214 232 239 280 321 223 203 160 158 185 205 203 214 222 220 227 211 188 239 286 120 140 231 191 164 139 140 185 193 183 152 133 129 131 125 119 124 115 103 135 146 143 153 158 172 168 133 141 162 115 193 277 276 127 159 237 305 277 261 256 255 249 242 246 248 238 228 226 231 239 243 247 255 257 245 204 136 134 125 119 129 141 155 185 214 235 246 235
Height
1551 1551 1551 1551 1551 1551 1551 1552 1552 1552 1552 1552 1552 1551 1551 1551 1551 1551 1551 1551 1550 1550 1550 1550 1549 1549 1548 1548 1547 1546 1546 1545 1544 1543 1541 1541 1540 1540 1541 1542 1542 1542 1542 1542 1542 1542 1543 1543 1544 1544 1544 1545 1545 1545 1546 1546 1546 1547 1549 1553 1555 1553 1550 1544 1541 1541 1541 1539 1537 1535 1534 1534 1535 1534 1534 1533 1533 1532 1530 1528 1528 1527 1526 1526 1525 1524 1524 1524
1550 1550 1550 1550 1550 1551 1551 1551 1551 1551 1551 1551 1551 1551 1551 1550 1550 1550 1550 1550 1549 1549 1549 1549 1548 1548 1547 1547 1546 1546 1545 1544 1542 1541 1540 1539 1539 1540 1541 1542 1542 1542 1542 1542 1542 1542 1542 1543 1543 1544 1544 1544 1545 1545 1545 1546 1546 1547 1549 1553 1552 1549 1544 1539 1539 1538 1538 1538 1536 1535 1534 1534 1534 1534 1533 1532 1532 1531 1529 1526 1525 1524 1522 1523 1524 1523 1523 1522
1550 1550 1550 1550 1550 1550 1550 1550 1550 1550 1550 1550 1550 1550 1550 1549 1549 1549 1549 1549 1548 1548 1548 1548 1547 1547 1546 1546 1545 1545 1544 1542 1541 1540 1540 1539 1539 1540 1541 1542 1541 1542 1541 1541 1541 1541 1541 1542 1543 1543 1544 1544 1544 1545 1545 1545 1545 1545 1547 1551 1548 1543 1541 1538 1538 1537 1536 1537 1535 1534 1534 1533 1533 1533 1533 1532 1530 1529 1528 1524 1523 1520 1517 1519 1521 1521 1521 1521
1549 1549 1549 1549 1549 1549 1549 1549 1549 1549 1549 1549 1549 1549 1549 1548 1548 1548 1548 1547 1547 1547 1547 1547 1546 1546 1545 1545 1544 1544 1543 1541 1539 1539 1540 1539 1539 1539 1540 1541 1541 1541 1540 1540 1540 1541 1541 1541 1542 1543 1543 1544 1544 1544 1544 1544 1544 1543 1545 1547 1543 1540 1540 1538 1537 1536 1536 1536 1534 1533 1532 1532 1532 1532 1531 1531 1530 1527 1524 1522 1521 1518 1515 1515 1518 1519 1519 1518
1548 1548 1548 1548 1548 1548 1548 1548 1548 1548 1548 1548 1548 1548 1547 1547 1547 1547 1546 1546 1546 1546 1545 1545 1545 1544 1544 1543 1543 1543 1543 1542 1539 1539 1540 1539 1539 1539 1539 1540 1540 1540 1540 1540 1540 1540 1540 1541 1542 1542 1543 1543 1543 1544 1543 1541 1542 1542 1541 1540 1539 1539 1539 1536 1536 1537 1536 1535 1534 1533 1532 1531 1530 1529 1529 1530 1530 1524 1519 1519 1519 1517 1514 1513 1514 1516 1517 1516
1547 1547 1547 1547 1547 1547 1547 1547 1547 1547 1547 1547 1547 1546 1546 1546 1546 1545 1545 1545 1544 1544 1544 1544 1543 1543 1543 1542 1542 1542 1543 1543 1539 1539 1540 1539 1539 1539 1539 1539 1538 1538 1538 1539 1539 1539 1540 1540 1541 1541 1542 1542 1542 1542 1540 1539 1540 1541 1539 1537 1537 1537 1536 1534 1535 1535 1535 1535 1533 1532 1530 1529 1529 1527 1525 1528 1525 1519 1516 1516 1517 1515 1513 1512 1513 1514 1514 1514
1546 1546 1546 1546 1546 1546 1546 1546 1546 1546 1546 1546 1545 1545 1545 1544 1544 1544 1543 1543 1543 1543 1542 1542 1542 1541 1541 1541 1541 1541 1541 1540 1538 1538 1538 1538 1538 1538 1538 1538 1537 1537 1537 1538 1538 1539 1539 1540 1540 1540 1541 1541 1541 1540 1539 1538 1539 1540 1538 1536 1535 1535 1534 1534 1534 1534 1534 1533 1532 1531 1529 1528 1529 1526 1523 1523 1520 1515 1514 1514 1514 1513 1512 1512 1512 1512 1512 1511
1544 1544 1544 1544 1544 1544 1544 1544 1544 1544 1544 1544 1544 1544 1543 1543 1543 1542 1542 1542 1541 1541 1541 1541 1540 1540 1540 1540 1539 1540 1539 1537 1536 1537 1537 1537 1537 1537 1537 1537 1537 1537 1537 1538 1538 1539 1539 1539 1539 1540 1540 1540 1539 1539 1538 1538 1537 1537 1536 1535 1534 1534 1533 1533 1533 1532 1532 1530 1529 1530 1528 1526 1528 1526 1521 1519 1517 1513 1512 1511 1512 1511 1511 1511 1510 1509 1509 1508
1543 1543 1543 1543 1543 1543 1543 1543 1543 1543 1543 1543 1543 1542 1542 1542 1541 1541 1541 1541 1540 1540 1540 1539 1539 1539 1539 1538 1538 1538 1536 1535 1535 1535 1535 1536 1536 1536 1536 1536 1537 1536 1537 1537 1538 1538 1538 1539 1539 1539 1539 1539 1538 1538 1537 1538 1538 1535 1535 1534 1533 1533 1532 1532 1531 1530 1529 1527 1527 1528 1526 1523 1525 1525 1519 1515 1515 1512 1510 1510 1509 1510 1509 1509 1509 1507 1507 1506
1541 1541 1541 1541 1541 1542 1542 1542 1542 1542 1542 1541 1541 1541 1541 1540 1540 1540 1540 1539 1539 1539 1538 1538 1537 1537 1537 1537 1538 1537 1534 1534 1534 1534 1534 1534 1534 1535 1535 1535 1536 1536 1536 1537 1537 1538 1538 1539 1539 1539 1539 1538 1538 1537 1537 1538 1537 1535 1534 1533 1532 1532 1530 1530 1529 1526 1525 1524 1524 1526 1525 1521 1523 1526 1518 1512 1512 1511 1509 1508 1507 1507 1507 1507 1507 1506 1506 1506
1540 1540 1540 1540 1540 1540 1540 1540 1540 1540 1540 1540 1540 1539 1539 1539 1539 1538 1538 1538 1538 1537 1537 1537 1536 1536 1536 1536 1536 1534 1532 1533 1533 1533 1533 1533 1533 1533 1533 1534 1534 1534 1535 1535 1536 1536 1537 1537 1538 1538 1538 1538 1538 1537 1537 1536 1536 1535 1534 1533 1531 1531 1529 1527 1526 1523 1522 1522 1519 1522 1524 1520 1522 1524 1516 1510 1510 1510 1509 1507 1505 1505 1505 1505 1506 1506 1507 1506
1538 1538 1538 1538 1539 1538 1539 1538 1538 1538 1538 1538 1538 1538 1538 1538 1537 1537 1537 1537 1536 1536 1536 1535 1535 1534 1534 1534 1532 1531 1531 1532 1532 1532 1532 1531 1532 1532 1532 1532 1532 1533 1533 1534 1535 1535 1535 1536 1537 1538 1538 1538 1538 1538 1537 1536 1536 1535 1534 1535 1532 1531 1529 1523 1521 1520 1520 1520 1517 1520 1525 1523 1520 1517 1512 1509 1509 1509 1509 1506 1503 1502 1502 1503 1505 1505 1506 1506
1536 1536 1536 1537 1537 1537 1537 1537 1537 1537 1537 1537 1537 1537 1537 1536 1536 1536 1536 1535 1535 1535 1534 1534 1533 1533 1533 1531 1529 1529 1530 1530 1530 1530 1530 1530 1530 1530 1530 1531 1531 1532 1532 1533 1533 1533 1534 1535 1535 1537 1537 1538 1538 1537 1536 1535 1536 1535 1534 1536 1534 1535 1531 1519 1517 1518 1517 1518 1515 1519 1527 1525 1517 1512 1510 1509 1508 1507 1506 1504 1502 1500 1500 1502 1503 1504 1504 1504
1535 1535 1535 1535 1535 1536 1536 1535 1535 1535 1535 1535 1535 1536 1535 1535 1535 1535 1534 1534 1534 1534 1533 1533 1532 1532 1531 1529 1527 1528 1528 1528 1528 1528 1528 1529 1528 1529 1529 1529 1530 1530 1531 1532 1532 1533 1533 1534 1535 1536 1536 1537 1537 1536 1536 1536 1536 1535 1535 1536 1536 1540 1533 1517 1515 1517 1515 1517 1514 1517 1526 1523 1514 1511 1509 1509 1508 1506 1504 1502 1500 1499 1499 1501 1502 1502 1502 1501
1534 1534 1534 1534 1534 1535 1534 1534 1534 1534 1534 1534 1534 1534 1534 1534 1534 1533 1533 1532 1532 1532 1532 1531 1531 1531 1529 1527 1525 1526 1525 1526 1526 1526 1527 1527 1527 1528 1528 1528 1529 1529 1530 1531 1531 1532 1532 1533 1534 1535 1536 1536 1536 1537 1538 1538 1536 1534 1537 1538 1536 1539 1533 1519 1515 1515 1514 1516 1515 1517 1523 1520 1514 1511 1509 1508 1507 1506 1504 1500 1498 1499 1500 1501 1501 1500 1500 1499
1532 1532 1533 1533 1533 1533 1533 1533 1533 1533 1533 1532 1532 1532 1532 1532 1532 1532 1531 1531 1531 1530 1530 1530 1529 1530 1528 1525 1524 1524 1524 1524 1525 1526 1526 1526 1526 1527 1527 1528 1528 1529 1529 1530 1530 1531 1532 1532 1533 1534 1535 1535 1536 1537 1540 1542 1539 1535 1537 1538 1535 1535 1533 1525 1516 1512 1513 1515 1516 1518 1520 1518 1514 1510 1509 1508 1505 1504 1503 1500 1499 1500 1500 1501 1501 1499 1499 1498
1531 1531 1531 1531 1532 1532 1532 1532 1532 1532 1531 1531 1531 1531 1531 1530 1530 1530 1529 1529 1529 1528 1529 1529 1528 1528 1526 1523 1523 1523 1523 1523 1524 1524 1524 1525 1525 1526 1527 1527 1527 1528 1529 1529 1530 1530 1531 1532 1533 1534 1534 1535 1535 1537 1544 1548 1543 1537 1536 1536 1534 1531 1532 1528 1519 1513 1513 1515 1516 1517 1517 1516 1512 1509 1508 1506 1504 1502 1501 1501 1501 1501 1501 1501 1501 1499 1498 1497
1529 1530 1530 1530 1530 1530 1531 1531 1531 1530 1530 1530 1529 1529 1529 1529 1528 1528 1527 1527 1527 1527 1527 1527 1527 1529 1525 1521 1522 1522 1522 1522 1523 1523 1524 1524 1525 1525 1526 1526 1527 1527 1528 1529 1529 1529 1531 1532 1533 1534 1535 1535 1535 1538 1543 1542 1537 1534 1533 1534 1532 1530 1529 1527 1522 1515 1513 1514 1516 1516 1516 1514 1511 1509 1506 1502 1501 1500 1500 1502 1502 1500 1501 1501 1500 1499 1499 1498
1528 1528 1529 1529 1529 1529 1529 1530 1530 1529 1529 1529 1529 1528 1528 1527 1526 1526 1525 1525 1525 1525 1525 1524 1525 1526 1523 1520 1520 1521 1520 1521 1522 1522 1523 1523 1524 1524 1525 1525 1526 1526 1527 1528 1528 1529 1530 1531 1535 1536 1535 1533 1531 1532 1533 1530 1528 1529 1530 1531 1532 1531 1528 1524 1520 1515 1514 1516 1516 1515 1515 1513 1510 1507 1503 1497 1497 1499 1499 1500 1501 1500 1500 1500 1500 1500 1500 1499
1527 1527 1527 1528 1528 1528 1529 1529 1529 1528 1528 1528 1528 1527 1527 1526 1525 1525 1524 1523 1523 1522 1522 1522 1522 1521 1519 1519 1519 1520 1520 1520 1520 1521 1522 1522 1523 1523 1524 1525 1525 1526 1527 1526 1528 1528 1528 1532 1535 1532 1528 1526 1525 1525 1525 1524 1526 1528 1529 1530 1530 1530 1528 1522 1518 1515 1514 1517 1516 1513 1514 1513 1510 1506 1500 1494 1495 1498 1498 1499 1500 1500 1500 1501 1501 1501 1500 1500
1525 1526 1526 1526 1527 1527 1528 1528 1528 1528 1528 1527 1527 1527 1526 1526 1526 1525 1524 1522 1521 1520 1519 1518 1519 1518 1517 1517 1518 1519 1519 1518 1518 1519 1520 1520 1522 1522 1523 1524 1525 1527 1526 1525 1527 1527 1529 1532 1529 1523 1520 1520 1521 1522 1524 1525 1526 1527 1528 1529 1528 1528 1525 1520 1518 1515 1514 1518 1516 1513 1514 1513 1509 1506 1498 1493 1496 1498 1496 1498 1500 1500 1501 1502 1502 1502 1502 1502
1524 1524 1525 1526 1526 1526 1527 1527 1527 1527 1527 1527 1526 1526 1525 1526 1526 1525 1524 1522 1518 1517 1516 1515 1515 1514 1513 1515 1516 1516 1517 1516 1517 1518 1518 1520 1521 1521 1522 1523 1524 1524 1523 1525 1527 1529 1533 1531 1522 1517 1519 1520 1521 1522 1523 1524 1525 1525 1526 1528 1528 1525 1524 1521 1517 1515 1515 1518 1516 1514 1515 1513 1509 1504 1497 1494 1499 1500 1498 1498 1500 1501 1501 1503 1503 1503 1503 1503
1523 1523 1524 1524 1525 1525 1525 1525 1526 1526 1526 1526 1526 1525 1525 1525 1525 1524 1524 1523 1517 1512 1511 1511 1510 1510 1510 1512 1513 1513 1514 1514 1515 1516 1517 1518 1519 1520 1520 1521 1522 1522 1522 1524 1526 1531 1532 1524 1516 1516 1519 1521 1522 1521 1521 1523 1523 1524 1524 1527 1526 1523 1525 1525 1519 1516 1516 1516 1517 1515 1515 1514 1509 1501 1496 1499 1502 1502 1502 1501 1502 1502 1501 1503 1504 1504 1504 1503
1521 1522 1523 1523 1523 1524 1524 1525 1525 1525 1525 1525 1525 1525 1524 1524 1524 1524 1523 1522 1517 1510 1506 1506 1507 1507 1508 1509 1510 1511 1512 1513 1514 1514 1514 1516 1517 1518 1518 1518 1520 1521 1521 1521 1522 1525 1522 1515 1513 1515 1518 1520 1521 1520 1520 1523 1524 1523 1522 1523 1523 1521 1523 1524 1521 1519 1516 1515 1515 1515 1516 1514 1508 1501 1499 1504 1504 1503 1504 1503 1504 1505 1504 1505 1504 1504 1505 1504
1519 1521 1521 1522 1522 1522 1522 1524 1523 1524 1524 1523 1524 1524 1524 1524 1523 1524 1523 1523 1520 1510 1504 1505 1505 1506 1506 1507 1508 1510 1511 1511 1512 1512 1513 1514 1516 1517 1516 1517 1519 1520 1519 1519 1522 1523 1516 1512 1513 1515 1516 1518 1519 1518 1519 1521 1523 1523 1519 1517 1518 1518 1519 1520 1521 1521 1522 1522 1516 1516 1524 1517 1505 1502 1501 1503 1506 1505 1506 1506 1506 1507 1506 1506 1505 1506 1507 1506
1518 1519 1519 1521 1521 1521 1522 1522 1522 1523 1522 1523 1523 1523 1524 1523 1523 1523 1523 1525 1522 1508 1503 1505 1504 1505 1505 1506 1507 1508 1511 1511 1510 1511 1512 1514 1515 1515 1516 1516 1516 1517 1517 1517 1520 1519 1513 1511 1512 1513 1515 1516 1517 1518 1517 1518 1524 1525 1518 1513 1515 1516 1518 1519 1520 1522 1525 1526 1519 1518 1529 1523 1508 1502 1498 1499 1506 1507 1508 1509 1509 1509 1508 1507 1507 1508 1508 1507
1516 1517 1518 1519 1519 1520 1520 1520 1521 1521 1521 1522 1522 1523 1523 1521 1523 1522 1523 1529 1521 1503 1501 1505 1504 1504 1504 1505 1506 1507 1511 1510 1509 1511 1511 1513 1514 1514 1516 1515 1515 1516 1514 1516 1520 1516 1510 1511 1512 1513 1514 1516 1518 1518 1515 1516 1523 1524 1517 1514 1515 1516 1519 1519 1520 1524 1524 1524 1523 1519 1523 1524 1516 1505 1497 1498 1507 1510 1511 1512 1511 1511 1511 1509 1510 1510 1510 1509
1514 1514 1515 1516 1517 1518 1519 1519 1519 1519 1520 1522 1521 1523 1522 1521 1523 1521 1525 1533 1518 1499 1501 1503 1503 1504 1504 1505 1506 1506 1509 1508 1509 1511 1511 1512 1514 1513 1515 1514 1514 1515 1512 1515 1519 1513 1508 1511 1511 1512 1515 1517 1516 1514 1513 1515 1519 1519 1515 1515 1516 1516 1519 1519 1521 1525 1525 1527 1528 1521 1520 1524 1516 1502 1497 1500 1505 1510 1512 1512 1514 1513 1512 1511 1511 1512 1512 1511
1511 1511 1513 1514 1515 1516 1517 1517 1518 1518 1519 1520 1521 1522 1520 1521 1522 1520 1528 1531 1510 1497 1501 1502 1503 1505 1504 1505 1506 1506 1508 1508 1509 1511 1511 1512 1513 1513 1514 1513 1513 1514 1511 1512 1514 1510 1509 1509 1509 1510 1514 1514 1511 1511 1512 1513 1515 1514 1515 1516 1516 1518 1519 1520 1523 1525 1527 1530 1527 1519 1518 1522 1512 1496 1497 1503 1503 1508 1511 1512 1514 1514 1513 1513 1512 1514 1514 1512
1508 1508 1510 1511 1512 1513 1514 1515 1516 1517 1518 1519 1520 1520 1520 1521 1521 1526 1534 1526 1506 1500 1502 1501 1503 1504 1504 1505 1506 1506 1507 1507 1508 1509 1511 1512 1512 1513 1513 1512 1513 1513 1513 1513 1511 1510 1509 1509 1509 1509 1509 1508 1508 1512 1513 1513 1513 1513 1515 1516 1518 1521 1521 1523 1525 1525 1531 1530 1520 1514 1512 1517 1515 1498 1495 1500 1497 1499 1507 1512 1514 1514 1514 1514 1513 1514 1515 1513
1504 1505 1507 1508 1509 1510 1511 1513 1514 1515 1516 1518 1519 1519 1520 1521 1522 1531 1532 1516 1504 1504 1501 1502 1504 1503 1503 1504 1505 1506 1506 1507 1507 1508 1510 1511 1512 1513 1513 1513 1513 1514 1516 1515 1512 1511 1510 1510 1509 1506 1505 1506 1508 1511 1513 1513 1514 1514 1516 1518 1521 1524 1524 1527 1528 1529 1534 1525 1511 1510 1511 1516 1517 1501 1495 1499 1495 1494 1501 1506 1511 1513 1514 1514 1514 1515 1515 1514
1501 1503 1504 1505 1507 1508 1510 1511 1512 1514 1515 1516 1518 1518 1520 1524 1527 1529 1521 1508 1506 1504 1500 1502 1503 1502 1503 1503 1504 1505 1505 1506 1506 1506 1508 1510 1511 1511 1511 1511 1511 1515 1518 1516 1512 1511 1509 1508 1507 1505 1504 1504 1507 1511 1514 1514 1514 1515 1517 1521 1528 1531 1529 1530 1530 1531 1530 1519 1508 1508 1510 1513 1510 1500 1501 1504 1502 1501 1502 1504 1509 1511 1513 1514 1514 1515 1514 1514
1499 1500 1502 1503 1505 1507 1509 1510 1511 1512 1513 1514 1517 1517 1521 1528 1527 1519 1511 1506 1505 1501 1498 1500 1500 1501 1503 1503 1504 1503 1503 1504 1504 1505 1506 1508 1511 1510 1509 1508 1507 1510 1513 1514 1513 1510 1508 1506 1505 1505 1503 1501 1504 1509 1512 1511 1513 1516 1517 1521 1528 1531 1532 1530 1526 1527 1524 1514 1507 1507 1508 1509 1501 1501 1510 1510 1507 1507 1505 1508 1511 1511 1513 1514 1513 1514 1514 1514
1497 1498 1500 1501 1504 1506 1507 1509 1510 1511 1512 1513 1514 1516 1523 1526 1519 1510 1508 1504 1500 1499 1498 1499 1500 1501 1502 1503 1503 1501 1503 1503 1501 1504 1505 1507 1511 1510 1507 1506 1506 1506 1508 1511 1512 1510 1512 1509 1503 1502 1501 1499 1501 1502 1504 1506 1511 1514 1513 1516 1519 1518 1521 1523 1518 1519 1518 1511 1508 1508 1508 1503 1497 1504 1515 1513 1510 1510 1508 1510 1512 1512 1514 1513 1513 1514 1513 1514
1495 1497 1499 1501 1503 1504 1506 1508 1509 1510 1512 1511 1513 1518 1521 1519 1512 1509 1507 1502 1498 1499 1499 1498 1500 1503 1503 1502 1500 1498 1501 1502 1500 1502 1505 1505 1507 1506 1502 1501 1502 1504 1506 1510 1510 1508 1511 1507 1499 1499 1498 1498 1500 1500 1501 1504 1509 1512 1511 1514 1515 1509 1509 1514 1514 1513 1516 1516 1512 1507 1504 1503 1506 1512 1516 1514 1513 1512 1511 1512 1512 1513 1514 1513 1514 1514 1513 1513
1493 1495 1497 1499 1501 1503 1505 1507 1507 1509 1509 1509 1514 1518 1515 1510 1506 1505 1502 1499 1499 1500 1500 1501 1501 1504 1506 1503 1500 1498 1498 1500 1500 1502 1503 1503 1502 1500 1498 1496 1496 1499 1501 1504 1504 1504 1507 1504 1498 1499 1499 1497 1500 1499 1500 1503 1506 1510 1512 1511 1511 1508 1506 1512 1516 1512 1515 1520 1512 1501 1500 1507 1512 1514 1514 1515 1515 1513 1514 1513 1512 1513 1513 1513 1513 1513 1513 1513
1492 1494 1495 1497 1499 1501 1503 1505 1506 1507 1507 1508 1513 1513 1508 1505 1503 1501 1499 1499 1500 1500 1502 1506 1503 1503 1505 1504 1501 1500 1499 1500 1500 1501 1503 1502 1499 1496 1495 1494 1494 1495 1495 1497 1498 1499 1503 1503 1499 1498 1499 1498 1499 1499 1499 1501 1502 1506 1510 1507 1506 1509 1508 1512 1519 1518 1518 1522 1511 1498 1499 1504 1505 1507 1514 1517 1514 1514 1515 1513 1514 1514 1513 1513 1513 1512 1513 1512
1491 1492 1494 1495 1498 1500 1502 1504 1505 1505 1506 1507 1510 1508 1505 1504 1502 1500 1499 1499 1500 1501 1505 1508 1504 1500 1502 1503 1501 1499 1500 1502 1501 1500 1502 1501 1497 1492 1491 1493 1495 1495 1493 1494 1497 1498 1500 1504 1501 1498 1499 1499 1498 1500 1501 1501 1501 1503 1505 1504 1506 1512 1512 1512 1518 1521 1520 1521 1513 1501 1499 1499 1496 1499 1509 1513 1511 1512 1514 1513 1513 1513 1512 1512 1512 1512 1513 1512
1490 1491 1492 1493 1496 1498 1500 1503 1504 1505 1506 1506 1507 1506 1503 1501 1499 1498 1499 1500 1501 1504 1506 1506 1503 1500 1499 1500 1499 1497 1499 1500 1500 1500 1501 1499 1496 1492 1491 1493 1494 1495 1494 1493 1496 1497 1499 1504 1504 1499 1499 1500 1499 1501 1503 1502 1502 1503 1504 1505 1506 1509 1511 1511 1513 1514 1513 1515 1513 1505 1500 1495 1491 1492 1499 1505 1507 1508 1509 1510 1511 1511 1511 1511 1511 1512 1512 1512
1489 1490 1491 1491 1494 1496 1499 1502 1503 1504 1504 1501 1502 1503 1500 1498 1497 1495 1497 1499 1500 1501 1502 1501 1501 1501 1498 1496 1497 1497 1498 1498 1498 1499 1499 1496 1493 1492 1493 1493 1493 1494 1494 1493 1495 1498 1499 1503 1505 1502 1500 1502 1500 1500 1500 1500 1502 1505 1506 1508 1507 1507 1509 1511 1510 1508 1509 1513 1513 1510 1505 1494 1490 1494 1496 1499 1503 1504 1505 1508 1509 1509 1509 1509 1510 1511 1511 1511
1488 1490 1490 1490 1492 1494 1497 1502 1502 1502 1502 1499 1498 1499 1497 1495 1493 1492 1494 1496 1496 1497 1497 1497 1497 1497 1496 1496 1497 1496 1497 1498 1497 1498 1497 1494 1492 1493 1494 1494 1493 1494 1495 1495 1497 1499 1500 1503 1505 1504 1502 1502 1499 1497 1498 1500 1503 1506 1507 1507 1507 1507 1510 1514 1513 1505 1505 1512 1511 1510 1510 1498 1491 1495 1496 1497 1501 1503 1504 1506 1506 1506 1507 1508 1509 1510 1510 1511
1487 1488 1488 1489 1491 1492 1495 1499 1499 1499 1498 1495 1493 1494 1493 1492 1491 1491 1491 1493 1494 1494 1494 1495 1495 1495 1495 1495 1495 1495 1496 1497 1496 1496 1495 1493 1492 1493 1494 1494 1494 1493 1494 1497 1499 1499 1501 1504 1507 1505 1502 1500 1498 1497 1498 1500 1501 1503 1505 1505 1505 1507 1509 1513 1515 1508 1505 1508 1507 1510 1513 1503 1495 1497 1497 1497 1500 1501 1503 1503 1503 1504 1505 1507 1508 1508 1509 1509
1484 1485 1486 1487 1489 1491 1495 1496 1496 1496 1493 1488 1488 1489 1489 1489 1488 1488 1489 1490 1491 1492 1493 1493 1492 1493 1493 1493 1495 1495 1495 1496 1495 1493 1493 1493 1493 1495 1495 1494 1494 1494 1495 1498 1500 1500 1501 1505 1507 1506 1501 1498 1497 1497 1499 1499 1498 1501 1505 1505 1506 1508 1508 1511 1513 1512 1512 1510 1507 1511 1512 1501 1497 1498 1498 1499 1501 1501 1502 1502 1502 1504 1504 1505 1506 1506 1507 1507
1481 1483 1484 1486 1487 1489 1491 1490 1490 1490 1487 1485 1487 1487 1486 1487 1485 1485 1486 1487 1488 1489 1490 1490 1490 1491 1491 1491 1493 1493 1495 1497 1495 1492 1492 1492 1494 1497 1496 1495 1495 1495 1496 1497 1498 1500 1502 1505 1509 1511 1510 1506 1501 1498 1500 1502 1502 1505 1507 1507 1508 1508 1511 1513 1513 1515 1518 1512 1508 1513 1510 1499 1498 1500 1499 1501 1502 1502 1502 1502 1502 1502 1502 1504 1505 1505 1505 1506
1480 1482 1484 1485 1486 1486 1485 1482 1482 1484 1483 1484 1486 1485 1485 1485 1482 1483 1485 1485 1485 1486 1487 1487 1487 1488 1489 1490 1492 1492 1493 1495 1495 1494 1494 1494 1496 1498 1497 1496 1496 1495 1497 1497 1496 1498 1502 1504 1506 1511 1517 1516 1508 1502 1504 1507 1507 1508 1507 1507 1508 1508 1510 1513 1513 1516 1518 1512 1510 1514 1509 1500 1499 1500 1500 1503 1503 1502 1502 1502 1501 1501 1501 1502 1503 1503 1504 1504
1478 1480 1482 1485 1486 1484 1481 1480 1482 1483 1482 1484 1485 1483 1483 1483 1480 1481 1483 1483 1483 1483 1484 1485 1485 1486 1488 1489 1491 1491 1491 1493 1494 1493 1493 1495 1498 1499 1498 1498 1497 1496 1497 1497 1497 1498 1503 1504 1504 1505 1508 1508 1505 1505 1508 1510 1511 1510 1508 1507 1508 1508 1509 1512 1514 1516 1515 1512 1512 1508 1504 1503 1500 1496 1498 1501 1502 1502 1501 1500 1501 1500 1500 1501 1501 1502 1503 1503
1475 1475 1476 1480 1483 1482 1480 1480 1480 1480 1480 1482 1482 1478 1477 1479 1479 1480 1480 1479 1480 1481 1483 1483 1483 1484 1486 1487 1490 1491 1490 1491 1492 1492 1492 1494 1497 1499 1499 1498 1498 1498 1497 1497 1497 1499 1503 1505 1503 1504 1505 1502 1503 1507 1508 1509 1511 1511 1510 1508 1506 1506 1508 1511 1513 1512 1510 1512 1510 1500 1497 1504 1501 1494 1495 1498 1499 1499 1498 1498 1498 1498 1498 1499 1500 1501 1501 1501
1472 1470 1469 1471 1474 1474 1474 1474 1474 1477 1478 1479 1479 1475 1473 1475 1477 1477 1477 1476 1477 1478 1480 1481 1480 1481 1483 1484 1487 1489 1489 1491 1492 1490 1491 1493 1496 1499 1500 1499 1499 1498 1497 1498 1498 1499 1503 1504 1502 1504 1507 1504 1504 1507 1507 1508 1510 1509 1509 1508 1506 1504 1505 1508 1510 1508 1507 1510 1506 1497 1498 1502 1498 1493 1495 1496 1497 1496 1495 1494 1494 1494 1495 1497 1498 1499 1500 1500
1469 1468 1467 1468 1468 1467 1466 1467 1470 1474 1476 1477 1478 1475 1472 1473 1474 1473 1473 1474 1476 1475 1476 1478 1478 1479 1481 1482 1485 1487 1487 1489 1490 1489 1490 1492 1495 1497 1498 1499 1499 1498 1498 1499 1499 1499 1503 1504 1503 1504 1506 1504 1505 1508 1508 1508 1509 1508 1507 1506 1503 1502 1503 1505 1506 1504 1505 1505 1501 1499 1501 1499 1492 1492 1493 1494 1493 1493 1492 1492 1491 1492 1494 1495 1496 1498 1498 1499
1467 1467 1466 1466 1466 1465 1465 1466 1469 1471 1473 1475 1475 1471 1470 1472 1471 1470 1470 1471 1473 1473 1472 1475 1476 1478 1480 1481 1483 1484 1484 1484 1486 1486 1489 1492 1492 1494 1496 1496 1496 1498 1499 1499 1500 1500 1502 1506 1506 1505 1508 1508 1507 1508 1509 1508 1508 1508 1506 1502 1499 1500 1502 1502 1502 1502 1503 1503 1500 1500 1503 1496 1489 1490 1492 1491 1491 1490 1491 1491 1491 1492 1493 1494 1496 1497 1497 1499
1466 1466 1465 1466 1465 1465 1465 1466 1467 1470 1471 1471 1469 1467 1468 1470 1468 1469 1470 1469 1470 1471 1470 1472 1474 1478 1480 1480 1481 1482 1482 1483 1484 1484 1486 1488 1489 1491 1493 1493 1494 1496 1498 1499 1501 1500 1502 1507 1506 1506 1511 1510 1506 1510 1511 1507 1509 1511 1504 1496 1494 1498 1500 1498 1497 1497 1498 1499 1499 1501 1501 1494 1488 1489 1490 1489 1489 1490 1490 1491 1491 1492 1493 1494 1495 1495 1496 1497
1465 1465 1465 1466 1465 1463 1464 1464 1465 1468 1466 1463 1464 1464 1466 1466 1466 1469 1471 1470 1469 1470 1469 1470 1473 1477 1479 1480 1480 1481 1482 1483 1484 1485 1486 1487 1488 1490 1491 1492 1493 1495 1497 1499 1501 1500 1501 1505 1504 1506 1511 1509 1507 1511 1511 1510 1516 1512 1496 1488 1489 1493 1494 1494 1493 1492 1492 1494 1497 1498 1494 1490 1489 1489 1489 1489 1489 1489 1490 1490 1491 1492 1493 1493 1494 1494 1495 1496